Starlink 31458

operational
NORAD ID: 59501 Int'l Des: 2024-071 Owner: SPXS Country: US Constellation: starlink
LEOCIRCULAR

Starlink 31458について

説明を読み込み中...

リアルタイム位置

3D地球を読み込み中...

次回通過

高度履歴

Altitude vs Time

uPlot chart will show altitude changes over time

軌道要素

1 59501U 24071T 25350.36360704 .00007890 00000-0 29587-3 0 9996
2 59501 42.9991 90.1777 0001817 268.0324 92.0319 15.27584998 95465
Epoch: Dec 16, 2025 • Age: 24 hours

現在のステータス

高度 484.5 km
速度 7.63 km/s
衛星直下点 29.66°N, 8.14°E
打ち上げ日 Apr 13, 2024
運用期間 1.6 years
タイプ internet

技術仕様

分類 Payload
質量 730.00 kg
乾燥質量 700.00 kg
総質量 730.00 kg
長さ 0.30 m
直径 4.10 m
スパン 29.00 m
形状 Box + pan
製造者 SPXS
バスタイプ Starlink V2M
フェーズステータス In Orbit
所有者/国 SPXS/US

大規模コンステレーション

Loading constellations...